Location: Sternwarte Hubelmatt
(47.0367°N, 8.3053°E)
Time: 19:32:28
(UTC+02:00)

First-Move - Pass Details

Date: 26 April 2024
Orbit: 537 x 600 km, 97.7° (Epoch: 25 May)

Event Time Altitude Azimuth Distance (km) Brightness Sun altitude
Rises 03:02:04 0° 47° (NE) 2,868 ? -25.5°
Enters shadow 03:10:00 -2° 122° (ESE) 3,032 ? -24.9°
Exits shadow 03:40:44 -64° 188° (S) 12,026 ? -22.1°
Reaches altitude 10° 04:37:37 10° 23° (NNE) 1,962 ? -15.6°
Maximum altitude 04:41:46 50° 99° (E) 777 ? -15.0°
Drops below altitude 10° 04:45:53 10° 176° (S) 1,942 ? -14.5°
